EHI
0 0 0 0 0 0 0 0 0 0 0 0 0 0 0 0 0 0 0 0 0 0 0 0 0 0 0 0 0 0 0 0 0 0 0 0 0 0 0 0 0 0 0
0 0 0 0 0 0 0 0 0 0 0 0 0 0 0 0 0 0 0 0 0 0 0 0 0 0 0 0 0 0 0 0 0 0 0 0 0 0 0 0 0 0 0
0 0 0 0 0 0 0 0 0 0 0 0 0 0 0 0 0 0 0 0 0 0 0 0 0 0 0 0 0 0 0 0 0 0 0 0 0 0 0 0 0 0 0
0 0 0 0 0 0 0 0 0 0 0 0 0 0 0 0 0 0 0 0 0 0 0 0 0 0 0 0 0 0 0 0 0 0 0 0 0 0 0 0 0 0 0
0 0 0 0 0 0 0 0 0 0 0 0 0 0 0 0 0 0 0 0 0 0 0 0 0 0 0 0 0 0 0 0 0 0 0 0 0 0 0 0 0 0 0
0 0 0 0 0 0 0 0 0 0 0 0 0 0 0 0 0 0 0 0 0 0 0 0 0 0 0 0 0 0 0 0 0 0 0 0 0 0 0 0 0 0 0
0 0 0 0 0 0 0 0 0 0 0 0 0 0 0 0 0 0 0 0 0 0 0 0 0 0 0 0 0 0 0 0 0 0 0 0 0 0 0 0 0 0 0
0 0 0 0 0 0 0 0 0 0 0 0 0 0 0 0 0 0 0 0 0 0 0 0 0 0 0 0 0 0 0 0 0 0 0 0 0 0 0 0 0 0 0
0 0 0 0 0 0 0 0 0 0 0 0 0 0 0 0 0 0 0 0 0 0 0 0 0 0 0 0 0 0 0 0 0 0 0 0 0 0 0 0 0 0 0
0 0 0 0 0 0 0 0 0 0 0 0 0 0 0 0 0 0 0 0 0 0 0 0 0 0 0 0 0 0 0 0 0 0 0 0 0 0 0 0 0 0 0
0 0 0 0 0 0 0 0 0 0 0 0 0 0 0 0 0 0 0 0 0 0 0 0 0 0 0 0 0 0 0 0 0 0 0 0 0 0 0 0 0 0 0
0 0 0 0 0 0 0 0 0 0 0 0 0 0 0 0 0 0 0 0 0 0 0 0 0 0 0 0 0 0 0 0 0 0 0 0 0 0 0 0 0 0 0
0 0 0 0 0 0 0 0 0 0 0 0 0 0 0 0 0 0 0 0 0 0 0 0 0 0 0 0 0 0 0 0 0 0 0 0 0 0 0 0 0 0 0
0 0 0 0 0 0 0 0 0 0 0 0 0 0 0 0 0 0 0 0 0 0 0 0 0 0 0 0 0 0 0 0 0 0 0 0 0 0 0 0 0 0 0
0 0 0 0 0 0 0 0 0 0 0 0 0 0 0 0 0 0 0 0 0 0 0 0 0 0 0 0 0 0 0 0 0 0 0 0 0 0 0 0 0 0 0
0 0 0 0 0 0 0 0 0 0 0 0 0 0 0 0 0 0 0 0 0 0 0 0 0 0 0 0 0 0 0 0 0 0 0 0 0 0 0 0 0 0 0
0 0 0 0 0 0 0 0 0 0 0 0 0 0 0 0 0 0 0 0 0 0 0 0 0 0 0 0 0 0 0 0 0 0 0 0 0 0 0 0 0 0 0
0 0 0 0 0 0 0 0 0 0 0 0 0 0 0 0 0 0 0 0 0 0 0 0 0 0 0 0 0 0 0 0 0 0 0 0 0 0 0 0 0 0 0
0 0 0 0 0 0 0 0 0 0 0 0 0 0 0 0 0 0 0 0 0 0 0 0 0 0 0 0 0 0 0 0 0 0 0 0 0 0 0 0 0 0 0
0 0 0 0 0 0 0 0 0 0 0 0 0 0 0 0 0 0 0 0 0 0 0 0 0 0 0 0 0 0 0 0 0 0 0 0 0 0 0 0 0 0 0
0 0 0 0 0 0 0 0 0 0 0 0 0 0 0 0 0 0 0 0 0 0 0 0 0 0 0 0 0 0 0 0 0 0 0 0 0 0 0 0 0 0 0
0 0 0 0 0 0 0 0 0 0 0 0 0 0 0 0 0 0 0 0 0 0 0 0 0 0 0 0 0 0 0 0 0 0 0 0 0 0 0 0 0 0 0
0 0 0 0 0 0 0 0 0 0 0 0 0 0 0 0 0 0 0 0 0 0 0 0 0 0 0 0 0 0 0 0 0 0 0 0 0 0 0 0 0 0 0
0 0 0 0 0 0 0 0 0 0 0 0 0 0 0 0 0 0 0 0 0 0 0 0 0 0 0 0 0 0 0 0 0 0 0 0 0 0 0 0 0 0 0
0 0 0 0 0 0 0 0 0 0 0 0 0 0 0 0 0 0 0 0 0 0 0 0 0 0 0 0 0 0 0 0 0 0 0 0 0 0 0 0 0 0 0
0 0 0 0 0 0 0 0 0 0 0 0 0 0 0 0 0 0 0 0 0 0 0 0 0 0 0 0 0 0 0 0 0 0 0 0 0 0 0 0 0 0 0
Wind_Speed
10 9 9 8 8 8 7 7 6 4 3 3 2 2 3 4 5 5 5 5 5 4 4 4 5 4 3 3 3 3 3 3 8 7 4 5 6 8 10 9 9 9 10
8 8 8 7 7 7 7 6 6 5 5 5 5 6 7 7 6 6 5 5 4 5 6 5 6 5 5 5 4 4 5 5 6 11 7 5 7 8 9 10 10 10 8
8 8 7 7 7 7 7 6 7 7 7 6 6 6 6 5 4 3 3 3 4 5 5 6 7 6 7 6 6 6 5 7 6 9 11 6 6 7 7 9 10 7 9
8 8 8 7 7 7 7 7 6 6 6 6 5 5 4 4 3 2 2 3 5 6 6 6 7 7 7 7 6 7 7 7 8 9 10 8 7 7 6 6 7 5 6
8 8 7 6 6 6 6 6 6 5 5 4 4 3 3 2 1 1 3 5 6 7 8 8 8 12 13 9 8 7 7 8 8 9 10 9 8 6 6 6 8 7 7
8 7 6 5 5 5 4 5 5 5 5 5 4 2 0 1 2 3 5 5 6 7 9 9 9 10 12 16 17 18 17 13 12 11 10 10 10 8 7 7 7 8 7
8 6 4 3 3 3 5 6 5 4 4 4 3 2 2 3 4 5 8 6 6 7 8 8 9 10 12 8 13 18 18 21 20 14 12 11 11 9 9 10 9 10 10
5 3 2 2 4 5 6 5 4 3 2 2 2 3 3 4 5 6 9 7 7 8 8 8 9 9 9 10 12 13 13 13 14 11 10 11 11 10 10 10 11 10 9
2 2 2 4 5 5 5 3 2 2 2 2 2 4 4 4 6 6 8 5 6 8 9 9 10 9 12 15 13 12 13 12 13 12 12 12 13 12 9 6 6 6 6
1 2 4 5 5 5 4 2 2 2 2 3 4 4 4 2 4 7 9 4 6 7 8 9 12 11 14 16 11 10 11 10 10 9 8 7 6 5 6 4 4 5 4
2 4 5 5 5 5 3 2 2 3 3 4 4 4 3 3 5 9 11 5 6 8 8 7 7 13 16 16 13 9 10 11 7 6 5 4 3 3 3 3 4 3 3
4 5 5 4 5 5 4 3 4 4 4 4 4 4 4 4 5 9 13 12 10 8 8 7 8 15 17 16 11 11 13 9 5 4 4 4 3 3 3 4 4 4 3
4 5 5 5 4 4 4 4 3 3 3 2 3 3 4 5 6 10 12 14 15 8 7 13 15 15 14 10 11 13 9 5 4 4 4 3 3 3 4 4 4 4 3
5 5 5 5 4 3 3 3 2 1 2 2 3 4 5 5 5 6 7 8 10 9 8 10 13 12 10 9 9 7 5 5 4 4 4 3 3 3 4 4 3 4 3
6 5 4 4 3 2 2 2 2 2 2 1 1 2 4 5 7 12 8 6 6 7 8 5 4 6 6 6 6 6 5 5 5 5 4 3 3 3 4 4 4 4 4
5 4 3 2 2 2 1 1 2 3 4 4 5 4 4 7 11 12 13 12 12 12 6 5 6 6 6 6 6 6 5 5 5 4 4 3 3 4 4 4 4 4 5
4 4 3 3 3 2 2 2 2 3 4 6 8 8 8 9 9 11 13 13 10 9 5 5 5 6 6 7 6 6 5 6 5 4 3 3 3 3 4 5 5 5 5
3 3 3 3 3 3 3 2 2 1 2 3 4 5 7 8 9 11 12 9 6 6 5 5 6 6 6 6 6 6 6 6 5 4 3 3 3 3 4 4 5 7 6
2 1 1 2 2 2 2 2 1 1 0 1 2 4 6 7 8 8 8 4 5 5 6 6 6 6 6 6 7 6 6 6 6 5 4 3 3 3 3 4 4 7 7
1 2 1 1 1 1 2 2 1 1 0 1 2 3 4 4 4 5 4 4 4 5 5 6 6 6 6 6 7 7 7 6 7 5 5 4 3 2 2 3 3 4 5
2 2 2 1 1 1 2 2 2 2 1 1 0 2 4 3 4 5 4 4 4 5 5 6 6 6 6 6 7 7 8 6 6 6 6 5 3 2 1 2 2 3 3
1 1 1 1 2 2 2 2 2 2 2 2 1 2 4 3 4 4 4 4 4 4 4 4 5 5 5 6 6 7 7 7 7 7 7 5 3 2 2 2 2 3 3
3 3 3 3 3 4 4 3 3 2 2 2 1 1 2 3 4 4 5 5 5 5 4 4 5 5 5 5 5 4 5 6 6 6 6 5 4 3 3 3 4 4 4
4 4 4 3 3 3 3 3 2 2 2 1 1 1 2 3 4 5 5 5 5 5 5 5 5 7 10 8 6 5 5 6 6 5 5 4 4 4 3 4 4 6 6
3 3 3 3 3 3 3 3 2 2 2 2 2 2 3 3 4 5 5 5 6 6 7 7 6 7 10 10 9 8 10 10 8 5 4 4 5 5 5 5 5 6 5
4 4 4 3 3 3 3 3 3 3 3 3 3 3 4 4 5 5 6 6 6 6 7 7 10 10 11 9 11 11 10 10 10 9 5 4 6 6 5 5 6 5 5
Wind_Direction
91 93 93 94 99 101 104 109 114 111 103 87 66 49 44 41 43 53 50 39 29 2 347 339 318 304 292 285 276 266 260 257 284 289 257 269 276 281 289 286 283 277 277
96 93 91 95 100 99 98 96 91 77 57 50 53 65 75 74 67 61 39 23 4 341 326 320 308 305 292 277 269 264 261 254 264 289 291 278 273 275 277 280 286 285 278
96 94 92 92 93 93 89 82 74 70 62 58 66 82 92 87 76 61 35 359 333 314 305 301 296 296 291 284 277 272 269 275 264 278 287 278 271 273 279 282 284 282 285
91 89 88 88 89 88 85 81 78 75 69 69 81 103 110 101 82 38 358 334 323 312 304 298 296 293 288 288 289 282 282 282 278 277 282 282 274 268 265 274 286 277 282
90 85 80 80 81 85 83 79 75 74 76 74 81 105 138 127 117 339 331 335 326 319 315 308 303 306 311 311 310 300 296 290 287 284 285 284 279 273 267 267 277 280 274
83 78 74 74 80 84 87 88 85 76 67 60 60 67 56 246 255 314 341 329 319 314 311 309 306 305 311 316 314 310 305 299 295 287 285 283 282 273 270 269 271 275 278
75 76 76 80 93 92 97 91 86 78 65 57 48 38 339 279 274 317 340 332 313 304 301 303 308 310 314 305 308 308 302 296 291 287 285 283 282 277 274 274 268 266 266
83 83 86 84 86 89 90 89 84 73 65 49 19 0 339 318 327 339 338 328 307 300 300 298 299 302 307 311 310 303 297 294 289 286 276 275 275 275 271 273 275 272 266
101 85 74 89 99 95 92 86 75 71 47 21 359 359 359 353 14 2 347 317 305 305 306 306 307 304 307 314 312 304 301 299 300 291 281 281 283 286 289 285 284 283 280
104 78 83 95 102 105 108 94 72 77 45 20 14 15 27 27 13 353 347 317 312 313 310 308 309 308 312 316 315 307 305 308 311 314 311 308 304 309 322 316 313 306 300
101 99 98 101 107 109 98 76 61 53 41 30 23 9 4 343 331 338 341 333 318 312 309 310 309 312 316 318 318 311 312 314 311 314 316 320 321 321 324 320 316 315 314
110 107 105 103 102 101 96 74 56 54 46 24 7 349 329 318 325 333 334 330 324 311 306 308 310 315 319 320 320 320 324 326 321 323 327 330 330 328 321 319 321 330 338
116 117 112 100 90 100 106 93 63 49 40 8 355 338 325 326 328 334 331 327 327 323 308 312 318 321 324 322 320 326 331 333 329 328 330 330 327 325 322 322 327 334 349
120 123 120 112 104 100 108 116 103 68 38 2 346 332 323 322 325 332 327 322 324 325 319 316 319 324 328 324 323 328 328 324 324 324 327 326 330 340 345 341 340 346 347
115 127 131 135 141 140 142 165 161 193 193 207 277 294 311 317 317 321 321 318 319 317 318 317 327 330 332 333 334 333 332 337 338 336 341 349 351 353 355 352 358 3 9
117 133 148 155 165 172 187 273 261 225 236 243 260 279 289 294 315 329 339 341 343 341 342 336 334 333 335 337 341 340 335 338 338 343 356 5 2 5 9 10 13 20 22
135 152 167 175 182 190 196 207 274 297 275 273 276 291 307 320 334 344 347 342 342 350 352 339 337 337 337 341 344 343 340 339 345 356 6 3 5 12 18 22 24 28 34
140 163 174 194 197 195 197 199 204 231 303 311 304 307 326 340 344 349 349 348 350 354 346 340 339 339 338 343 346 347 345 348 353 357 1 1 5 14 22 26 28 33 41
146 191 214 220 212 198 190 179 183 195 239 334 347 340 339 338 336 343 351 355 342 340 339 339 339 339 341 344 346 347 347 349 353 352 352 353 358 16 27 32 37 35 42
240 247 214 185 177 159 167 166 171 176 139 48 13 338 332 340 344 341 344 339 338 337 337 337 338 339 341 344 345 347 349 352 352 351 345 344 347 7 37 51 53 52 51
246 256 237 120 90 126 145 154 161 158 149 138 285 313 341 338 337 338 340 338 336 333 333 333 335 338 340 342 344 347 349 350 348 344 343 343 351 11 32 61 78 75 66
150 137 125 120 96 101 113 120 125 124 137 147 236 313 338 344 343 343 341 336 328 320 319 322 326 327 330 335 338 341 344 346 344 343 342 346 1 28 53 73 88 87 75
87 87 82 81 85 90 87 87 98 106 121 156 203 340 351 350 347 347 345 339 333 331 328 329 332 335 336 330 330 332 332 328 320 318 327 341 1 21 41 66 89 98 89
92 95 95 93 89 89 92 91 93 100 104 103 80 23 7 357 352 354 353 348 345 343 342 342 344 345 346 344 335 328 324 319 312 306 318 342 5 19 39 61 79 98 99
82 84 88 94 95 95 93 88 84 80 75 67 54 39 24 14 5 2 360 357 358 1 0 357 355 354 349 344 341 335 329 333 338 337 339 6 24 33 50 66 82 95 102
63 67 74 82 82 83 86 84 74 70 65 62 57 47 33 23 12 7 5 7 6 2 1 360 357 359 357 351 342 338 339 347 354 2 9 26 37 42 54 65 79 86 97